Погода в Ербенте

Погода в Ербенте : погода сейчас, прогноз погоды и архив. Всё, что Вы хотите узнать о погоде в Ербенте!

Хотите узнать прогноз погоды в Ербенте? Тогда Вам сюда: Погода в Ербенте

Поиск расширенной информации на нашем сайте:

Другие новости

Новости СМИ2

Главная страница сайта

Новости сайта

03.07.2017

Напоминаем, что на нашем специализированном сайте Метеоцентр.Азия вы можете получить высокодетализированные автоматические прогнозы погоды по пунктам России, СНГ и мира в авиационном формате (включающие направление и скорость ветра, видимость, явления погоды, количество и форму облачности, нижнюю и верхнюю границу облачности).


Погода в Ербенте - сегодня

Время (UTC), дата Ветер
(°,м/с) 
Видим.   Явления Облачность Т
(°С)
Тd
(°С)
f(%) Тe
(°С)
Pmin
(гПа)
dP
(гПа)
Po
(мм)
O2
(г/м3)
Тmin Tmax R s Состояние
почвы
18 16.09.17 тихо ()   20000 м    ясно 
+22.7 -1.7 20 +23  1018.2  1.2  756  281    +32       
21 16.09.17 тихо ()   20000 м    ясно 
+18.2 -1.7 26 +18  1017.8  -0.5  755  286           
00 17.09.17 тихо ()   20000 м    ясно 
+15.5 -1.2 32 +16  1017.9  755  288           
03 17.09.17 тихо ()   20000 м    ясно 
+16.4 +1.1 35 +16  1018.5  0.6  756  287           
06 17.09.17 360 (С) 20000 м    ясно 
+27.6 +3.8 22 +28  1019  0.9  757  276  +14.7         
09 17.09.17 360 (С) 20000 м    ясно 
+31.4 +2.5 16 +31  1017.8  -1.1  756  273           
12 17.09.17 340 (С) 20000 м    ясно 
+32.2 +1.9 15 +32  1016.6  -1.2  755  272           
15 17.09.17 020 (С) 20000 м    ясно 
+28.8 +0.4 16 +29  1017  0.3  755  275    +33       
18 17.09.17 тихо ()   20000 м    ясно 
+21.8 -0.5 23 +22  1017.9  0.7  756  282    +33       
21 17.09.17 тихо ()   20000 м    ясно 
+18.2 -1.7 26 +18  1017.5  -0.5  755  285           
00 18.09.17 тихо ()   20000 м    ясно 
+15.4 -2.2 30 +15  1017.4  -0.2  755  288           
03 18.09.17 тихо ()   20000 м    ясно 
+16.8 -1.4 29 +17  1018.1  0.7  756  287           
06 18.09.17 тихо ()   20000 м    ясно 
+28.5 +2.5 19 +29  1018.7  756  276  +14.4         
09 18.09.17 360 (С) 20000 м    ясно 
+33.2 -0.2 12 +33  1017.7  -0.8  756  272           
12 18.09.17 020 (С) 20000 м    ясно 
+33.2 -0.7 11 +33  1016.2  -1.5  755  271           
15 18.09.17 тихо ()   20000 м    ясно 
+28.2 -4.1 12 +28  1017  0.6  755  276    +34.1       
18 18.09.17 050 (СВ) 20000 м    ясно 
+24.2 -3.6 16 +24  1017.4  0.3  755  280    +34.1       
21 18.09.17 050 (СВ) 20000 м    ясно 
+20.4 -2.2 22 +20  1017.2  -0.4  755  283           
00 19.09.17 тихо ()   20000 м    ясно 
+18.6 -1.4 26 +19  1017.4  0.2  755  285           
03 19.09.17 020 (С) 20000 м    ясно 
+17.6 -0.2 30 +19  1018.6  1.1  756  286           
06 19.09.17 050 (СВ) 20000 м    ясно 
+29.4 +4 20 +29  1018.8  0.6  756  275  +16.3         
09 19.09.17 360 (С) 20000 м    ясно 
+33.5 +1.9 14 +34  1017.6  -1.2  756  271           
12 19.09.17 360 (С) 20000 м    ясно 
+34 +0.2 12 +34  1017.1  -0.5  755  271           
15 19.09.17 050 (СВ) 20000 м    ясно 
+31 -0.7 13 +31  1016.1  -1.1  755  273    +34.5       
18 19.09.17 050 (СВ) 20000 м    ясно 
+24.2 -2.5 17 +24  1016.9  0.6  755  280    +34.5       
Время (UTC), дата Ветер
(°,м/с) 
Видим.   Явления Облачность Т
(°С)
Тd
(°С)
f(%) Тe
(°С)
Pmin
(гПа)
dP
(гПа)
Po
(мм)
O2
(г/м3)
Тmin Tmax R s Состояние
почвы

Для получения пояснительной информации подведите курсор к названию столбца.

ПОГОДА в Ербенте - архив

Всё, что Вы хотите узнать о погоде в Ербенте - удобно и подробно!

Выберите нужную дату (начиная с 1 января 2015* года) и нажмите кнопку "Найти".
Будут отображены архивные сводки погоды по пункту Ербент, начиная с указанной даты.


Отображать данные в формате CSV (для использования в таблицах Excel)


Внимание! Наш архив погоды предназначен исключительно для личного некоммерческого использования в познавательных целях. Если Вам необходимы официальные справки о состоянии погоды (для производственных, юридических, коммерческих и т.п. целей), обращайтесь в органы Росгидромета.

*Примечание: данная дата относится к архиву по метеостанциям СССР (Россия, СНГ, Балтия).
Архив по метеостанциям Зарубежной Европы и Азии (кроме Китая) хранится 10 дней, по другим регионам земного шара (Китай, Африка, Америка, Австралия, Океания) - 1 день.

Ербент - район местоположения метеостанции


Название, широта, долгота, высота метеостанции:
Ербент 39.3°ш. 58.6°д. 87 м над ур. моря [Туркменистан]

Дополнительная информация

В oтличие oт бoльшинства пoгoдных сайтoв мы публикуем пoдрoбную метеoинфoрмацию в детальнoм прoфессиoнальнoм фoрмате.

Характеристики температуры и влажнoсти вoздуха измеряются на высoте 2 м в тени вдали oт зданий и деревьев.
Скoрoсть ветра измеряется на высoте 10 м (на урoвне рoста челoвека скoрoсть ветра ниже в 1.5-2 раза). Если метеoстанция нахoдится в гoрoде или в лесу, тo скoрoсть ветра занижена на 2-4 м/с пo сравнению с oткрытым местoм. Скoрoсть ветра над акватoриями крупных рек и oзёр, а также на вершинах хoлмoв на 2-5 м/с выше, чем в oбычных услoвиях.
Атмoсфернoе давление в разных тoчках местнoсти мoжет значительнo oтличаться oт давления на метеoстанции, в зависимoсти oт услoвий рельефа (при пoдъёме на 10 м давление пoнижается примернo на 1 мм рт.ст.).